Location: Chiroubles
(46.1812°N, 4.6660°E)
Time: 00:17:44
(UTC+00:00)

Thor Agena Rocket - Pass Details

Date: 15 August 2020
Orbit: 760 x 807 km, 99.0° (Epoch: 19 September)

Event Time Altitude Azimuth Distance (km) Brightness Sun altitude
Rises 22:28:29 0° 17° (NNE) 3,249 7.5 -27.7°
Reaches altitude 10° 22:30:49 10° 20° (NNE) 2,324 6.6 -27.8°
Enters shadow 22:35:02 56° 52° (NE) 921 3.9 -28.1°
